Tracking 19475 objects as of 18-Jan-2019
HD Live streaming from Space Station
objects crossing your sky now

FLOCK 3P 44

Track FLOCK 3P 44 now!
10-day predictions
FLOCK 3P 44 is classified as:


NORAD ID: 42033
Int'l Code: 2017-008CP
Perigee: 493.5 km
Apogee: 503.7 km
Inclination: 97.4 °
Period: 94.4 minutes
Semi major axis: 6869 km
RCS: Unknown
Launch date: February 15, 2017
Source: United States (US)
Launch site: SRIHARIKOTA (SRI)
aabbcc
Your satellite tracking list
Your tracking list is empty




NASA's NSSDC Master Catalog

Two Line Element Set (TLE):
1 42033U 17008CP  19018.18347924  .00001786  00000-0  74937-4 0  9991
2 42033  97.4268  86.5489 0007384 352.3853   7.7271 15.24773429105432
Source of the keplerian elements: AFSPC